Location: Berlin
(52.5200°N, 13.4050°E)
Time: 14:02:53
(UTC+02:00)

ISS - Visible Passes

Search period start: 16 July 2019 00:00
Search period end: 26 July 2019 00:00
Orbit: 409 x 418 km, 51.6° (Epoch: 16 July)

Date Brightness Start Highest point End Pass type
(mag) Time Alt. Az. Time Alt. Az. Time Alt. Az.
16 Jul -3.9 01:32:41 10° W 01:36:01 75° S 01:39:20 10° E visible
16 Jul -3.8 03:09:20 10° W 03:12:38 61° SSW 03:15:55 10° ESE visible
16 Jul -2.8 23:07:35 10° SSW 23:10:24 25° SSE 23:13:12 10° E visible
17 Jul -3.9 00:43:26 10° WSW 00:46:45 66° SSE 00:50:03 10° E visible
17 Jul -3.9 02:20:02 10° W 02:23:22 71° S 02:26:40 10° ESE visible
17 Jul -3.0 03:56:49 10° W 03:59:46 30° SSW 04:02:42 10° SE visible
17 Jul -2.3 22:18:55 10° S 22:21:16 18° SE 22:23:37 10° E visible
17 Jul -3.8 23:54:13 10° WSW 23:57:29 54° SSE 00:00:45 10° E visible
18 Jul -3.9 01:30:44 10° W 01:34:04 77° S 01:37:24 10° E visible
18 Jul -3.4 03:07:25 10° W 03:10:35 40° SSW 03:13:42 10° SE visible
18 Jul -3.5 23:05:03 10° SW 23:08:13 42° SSE 23:11:25 10° E visible
19 Jul -3.9 00:41:26 10° W 00:44:45 78° S 00:48:05 10° E visible
19 Jul -3.7 02:18:05 10° W 02:21:20 52° SSW 02:24:34 10° ESE visible
19 Jul -2.2 03:55:18 10° WSW 03:57:30 17° SW 03:59:42 10° S visible
19 Jul -3.0 22:15:59 10° SW 22:19:00 32° SSE 22:22:02 10° E visible
19 Jul -3.9 23:52:07 10° WSW 23:55:27 73° S 23:58:46 10° E visible
20 Jul -3.9 01:28:45 10° W 01:32:03 64° SSW 01:35:21 10° ESE visible
20 Jul -2.7 03:05:39 10° W 03:08:22 23° SSW 03:08:58 22° SSW visible
20 Jul -3.8 23:02:49 10° WSW 23:06:08 63° SSE 23:09:26 10° E visible
21 Jul -3.9 00:39:24 10° W 00:42:45 73° S 00:45:11 17° ESE visible
21 Jul -2.4 02:16:09 10° W 02:17:54 24° WSW 02:17:54 24° WSW visible
21 Jul -3.6 22:13:34 10° WSW 22:16:50 51° SSE 22:20:05 10° E visible
21 Jul -3.9 23:50:04 10° W 23:53:24 78° S 23:56:29 12° E visible
22 Jul -3.1 01:26:44 10° W 01:29:15 37° SW 01:29:15 37° SW visible
22 Jul -3.9 23:00:42 10° W 23:04:03 77° S 23:07:23 10° E visible
23 Jul -3.8 00:37:21 10° W 00:40:38 55° SSW 00:41:00 51° SSE visible
23 Jul -3.8 22:11:21 10° WSW 22:14:41 71° S 22:18:01 10° E visible
23 Jul -3.9 23:47:59 10° W 23:51:17 67° SSW 23:52:55 27° ESE visible
24 Jul -1.6 01:24:49 10° W 01:25:42 15° WSW 01:25:42 15° WSW visible
24 Jul -3.9 22:58:35 10° W 23:01:56 75° S 23:04:54 13° E visible
25 Jul -2.8 00:35:19 10° W 00:37:42 31° SW 00:37:42 31° SW visible
25 Jul -3.8 22:09:12 10° W 22:12:32 78° S 22:15:53 10° E visible
25 Jul -3.5 23:45:52 10° W 23:49:05 46° SSW 23:49:45 40° SSE visible
